TIME,DELAY(SENSOR),PRES,OXYGEN,RAWTEMP,T(OPTODE),TCPHASE,FLUOR,BETA(BETA700),BETA(BETA412),BETA(BETA440),CDOM,C(CSC),ED(ED412.40),ED(ED444.00),ED(ED489.70),ED(ED554.30),LU(LU411.80),LU(LU443.40),LU(LU489.60),LU(LU554.10),COMP,TILTX,TILTY,CHECK
1361763110,5811,895.2500000000000000,45.0767288208007800,662.5607910156250000,4.5436310768127440,54.2722892761230500,53,100,87,79,79,14905,2147752393,2147423917,2148009060,2147871844,2147637778,2147058340,2148258331,2147197769,3064,4,13,7720
1361766706,5809,961.3800048828125000,47.9118690490722660,669.5955810546875000,4.3115539550781250,53.9562988281250000,53,102,92,81,80,14874,2147757988,2147428425,2148008521,2147874724,2147636745,2147053430,2148259510,2147200576,2847,4,13,65349
1361770306,5807,967.6099853515625000,48.7320709228515600,671.4332275390625000,4.2508411407470700,53.8643989562988300,52,102,87,80,81,14900,2147757705,2147424493,2148011885,2147873782,2147641920,2147051885,2148258093,2147194816,3500,4,13,892
1361773906,5807,1000.1900024414062000,49.5632209777832000,672.7736206054688000,4.2065329551696780,53.7686805725097660,52,98,85,79,80,14893,2147758884,2147424064,2148009974,2147871177,2147643218,2147053760,2148265252,2147196114,719,4,13,55830
1361777506,5808,1001.1599731445312000,49.3391799926757800,672.6851196289062000,4.2094569206237790,53.7977294921875000,52,99,86,79,80,14902,2147760987,2147425947,2148009938,2147872411,2147640868,2147060123,2148260077,2147193042,2633,4,13,2431
1361781106,5808,1000.0300292968750000,49.2030487060546900,672.8355712890625000,4.2044811248779300,53.8148002624511700,52,98,90,79,81,14900,2147757650,2147426852,2148009709,2147877129,2147641636,2147057234,2148258541,2147198217,96,4,13,43664
1361784706,5807,1009.0900268554688000,49.4061698913574200,673.0651245117188000,4.1968941688537600,53.7882499694824200,53,97,85,79,81,14900,2147757750,2147425526,2148009782,2147873197,2147641618,2147052187,2148262957,2147194578,540,4,13,37416
1361788306,5806,1011.0800170898438000,49.1575813293457000,672.9337768554688000,4.2012329101562500,53.8264808654785160,52,98,88,78,81,14899,2147756845,2147423250,2148008713,2147874569,2147641572,2147056548,2148260827,2147195437,140,4,13,4942
1361791906,5811,1012.5700073242188000,49.4638099670410160,673.8978271484375000,4.1693520545959470,53.7934112548828100,52,98,87,80,81,14899,2147758756,2147425115,2148009353,2147875172,2147642953,2147053028,2148262674,2147196425,3088,4,13,51101
1361795506,5808,1015.6599731445312000,49.0211601257324200,672.8145141601562000,4.2051811218261720,53.8434410095214840,52,98,85,78,81,14896,2147761517,2147425892,2148009298,2147876397,2147646290,2147052672,2148266102,2147198628,3488,4,13,11753
1361799106,5813,1015.2199707031250000,48.7618484497070300,673.1887817382812000,4.1928009986877440,53.8786811828613300,52,99,86,78,79,14896,2147756141,2147423515,2148009654,2147871597,2147640685,2147056941,2148261696,2147198198,303,4,13,4558
1361802706,5808,1007.0000000000000000,49.0463485717773440,674.1715698242188000,4.1602940559387210,53.8531990051269500,53,98,88,77,80,14898,2147758043,2147425517,2148006829,2147872694,2147643858,2147052617,2148267986,2147199085,3368,4,13,53556
1361806306,5810,1009.0300292968750000,49.1414489746093750,674.2918701171875000,4.1563148498535160,53.8460502624511700,53,100,88,79,79,14894,2147760155,2147425874,2148009545,2147872996,2147642605,2147057581,2148259264,2147197513,466,4,14,13376
1361809906,5809,1014.0200195312500000,49.2834281921386700,674.2047729492188000,4.1591992378234860,53.8256111145019500,52,101,89,78,80,14896,2147754633,2147427776,2148008301,2147876608,2147641499,2147051446,2148257801,2147197878,3529,4,13,36630
1361813506,5808,1004.4500122070312000,49.4036903381347660,675.6237792968750000,4.1122422218322750,53.8242607116699200,53,101,87,80,80,14891,2147757549,2147426395,2148010468,2147874249,2147641846,2147050614,2148259766,2147193069,3242,4,13,56805
1361817106,5809,1011.7700195312500000,49.2047996520996100,674.3358154296875000,4.1548628807067870,53.8307991027832000,53,98,85,78,80,14893,2147757878,2147421878,2148006994,2147873728,2147643721,2147051940,2148261613,2147197046,137,4,13,29188
1361820706,5808,1012.4400024414062000,48.9745597839355500,673.5819702148438000,4.1797962188720700,53.8557395935058600,52,97,84,80,80,14858,2147758784,2147421878,2148008978,2147872530,2147641161,2147057014,2148257590,2147197568,513,4,13,52781
1361824306,5811,1019.6599731445312000,49.3533782958984400,673.8607788085938000,4.1705741882324220,53.8055992126464840,52,105,88,78,80,14885,2147758400,2147423826,2148010660,2147874038,2147640237,2147057334,2148263433,2147195748,3387,4,13,3476
1361827906,5809,1018.1199951171875000,48.8299217224121100,672.8530273437500000,4.2039051055908200,53.8673591613769500,51,101,86,78,80,14891,2147761225,2147425819,2148009234,2147876544,2147640603,2147056210,2148263186,2147196004,382,4,13,21954
1361831506,5809,1013.3800048828125000,48.6472015380859400,673.2340698242188000,4.1913051605224610,53.8987617492675800,52,98,88,80,80,14887,2147758756,2147424338,2148009792,2147876416,2147641910,2147051008,2148262473,2147195785,335,4,13,32352
1361835106,5811,1018.4500122070312000,49.1375808715820300,674.2930297851562000,4.1562790870666500,53.8456993103027340,52,98,85,78,79,14892,2147758144,2147424822,2148007012,2147878080,2147643053,2147055067,2148259529,2147199149,428,4,13,17494
1361838706,5810,1009.9600219726562000,48.9337615966796900,674.9525146484375000,4.1344590187072750,53.8791389465332000,52,98,87,78,81,14892,2147758656,2147428086,2148011181,2147877622,2147641892,2147053357,2148264502,2147199634,97,4,13,11481
1361842306,5808,1011.1500244140625000,48.0172309875488300,674.9375000000000000,4.1349539756774900,54.0041198730468750,52,96,85,79,81,14893,2147755136,2147426688,2148010962,2147875593,2147640630,2147051840,2148254308,2147198930,3580,4,13,40830
1361845906,5810,1011.1300048828125000,48.6484985351562500,675.6334838867188000,4.1119232177734375,53.9278297424316400,52,97,87,79,79,14889,2147762203,2147425600,2148011620,2147872274,2147639451,2147057773,2148260882,2147199515,370,4,13,1914
1361849506,5808,1027.7399902343750000,48.9992790222168000,674.1975097656250000,4.1594390869140625,53.8623580932617200,51,100,89,78,81,14887,2147756324,2147425069,2148010313,2147875776,2147642651,2147051940,2148262089,2147200768,523,4,13,25050
1361853106,5808,1023.9899902343750000,48.6116409301757800,672.5745849609375000,4.2131118774414060,53.8944816589355500,52,99,89,79,80,14890,2147756269,2147423981,2148009490,2147873874,2147639844,2147054811,2148262948,2147199030,276,4,13,24542
1361856706,5808,1022.5499877929688000,48.6494789123535160,674.1702880859375000,4.1603369712829590,53.9117393493652340,52,97,86,78,81,14888,2147757851,2147429046,2148008640,2147873088,2147641334,2147055926,2148259108,2147199798,616,4,13,38027
1361860306,5808,1024.2500000000000000,49.0251502990722660,674.1917724609375000,4.1596260070800780,53.8602600097656250,53,99,85,80,80,14887,2147755977,2147424192,2148010898,2147875840,2147641993,2147055908,2148262665,2147198720,2098,4,13,33948
1361863906,5807,1030.8900146484375000,48.7136611938476560,674.1448974609375000,4.1611790657043460,53.8981094360351560,52,101,87,80,80,14888,2147758445,2147425572,2148014016,2147872841,2147639990,2147058678,2148260854,2147196809,588,4,13,49563
1361867506,5808,1023.1900024414062000,49.0497589111328100,673.5722045898438000,4.1801218986511230,53.8496017456054700,53,100,89,78,80,14887,2147758317,2147424868,2148009728,2147873024,2147641069,2147057124,2148263881,2147199305,3255,4,14,53406
1361871106,5807,1027.7600097656250000,48.5524711608886700,672.9772949218750000,4.1997971534729000,53.9060211181640600,53,100,86,78,80,14888,2147758326,2147425408,2148008000,2147873078,2147638555,2147055140,2148262144,2147195392,3564,4,13,58796
1361874706,5808,1027.0999755859375000,47.9488906860351560,672.1956176757812000,4.2256388664245605,53.9829597473144500,51,101,89,79,80,14890,2147756873,2147423341,2148011794,2147872329,2147640704,2147055616,2148266212,2147195273,130,4,13,8008
1361878306,5808,1022.7999877929688000,47.7692413330078100,672.4810791015625000,4.2162041664123535,54.0089683532714840,53,105,87,80,80,14886,2147756681,2147423497,2148011190,2147874422,2147638144,2147052178,2148263899,2147199542,137,4,13,46184
1361881906,5808,1017.5100097656250000,48.7183685302734400,674.7849121093750000,4.1400070190429690,53.9059486389160160,53,104,86,80,80,14885,2147757933,2147423899,2148007789,2147877293,2147641728,2147055012,2148259145,2147196964,2885,4,13,47284
1361885506,5808,1022.8200073242188000,49.0632591247558600,673.5651245117188000,4.1803550720214840,53.8461494445800800,52,98,91,79,80,14886,2147757046,2147423680,2148012397,2147873188,2147644544,2147064804,2148259072,2147195245,3540,4,13,38077
1361889106,5811,1018.0399780273438000,49.5438003540039060,675.3986816406250000,4.1196918487548830,53.8004913330078100,53,98,86,79,81,14885,2147759241,2147427657,2148010340,2147871140,2147641993,2147058505,2148267190,2147200932,1749,4,13,29483
1361892706,5810,1015.2100219726562000,48.6845092773437500,675.4315795898438000,4.1186051368713380,53.9242286682128900,53,200,90,79,80,14876,2147760128,2147425499,2148006125,2147875465,2147641398,2147058550,2148260982,2147197339,316,4,13,17340
1361896306,5810,1013.7000122070312000,49.2018814086914060,676.4185180664062000,4.0859360694885250,53.8630104064941400,52,98,90,79,81,14885,2147756022,2147421888,2148011254,2147871835,2147641243,2147053330,2148268068,2147195364,162,4,13,41076
1361899906,5809,1017.8200073242188000,49.4556198120117200,676.0952758789062000,4.0966339111328125,53.8221092224121100,53,99,87,80,80,14885,2147756434,2147425142,2148009837,2147875419,2147637961,2147051373,2148262125,2147195510,3566,4,13,34258
1361903506,5811,1018.6900024414062000,48.8428192138671900,675.4138183593750000,4.1191940307617190,53.9012794494628900,51,100,87,79,81,14877,2147760146,2147424521,2148008621,2147871606,2147638491,2147054070,2148265280,2147194432,16,4,13,46340
1361907106,5809,1025.0600585937500000,49.1420097351074200,674.4838867187500000,4.1499629020690920,53.8422203063964840,51,99,86,78,80,14884,2147758125,2147422454,2148010660,2147873289,2147643309,2147058084,2148260086,2147198656,3544,4,13,55039
1361908855,5808,1023.2000122070312000,49.0387001037597660,674.0737915039062000,4.1635298728942870,53.8522491455078100,52,99,86,80,80,14890,2147760740,2147425344,2148008137,2147872713,2147641106,2147057737,2148259675,2147196114,3475,4,13,52378
